North Las Vegas, NV

6:04 PM PDT on May 24, 2018 (GMT -0700)
North Las Vegas

Weather History for KVGT - February, 2018

Change the Weather History Date:

Tuesday, February 13, 2018

  Actual Average Record
Temperature  
Mean Temperature 52 °F 52 °F  
Max Temperature 59 °F 62 °F 77 °F (2015)
Min Temperature 44 °F 42 °F 28 °F (2004)
Degree Days  
Heating Degree Days 13 13  
Month to date heating degree days 73 182  
Since 1 July heating degree days 1003 1589  
Cooling Degree Days 0 0  
Month to date cooling degree days 0 0  
Year to date cooling degree days 0 0  
Growing Degree Days 2 (Base 50)    
Moisture  
Dew Point 37 °F    
Average Humidity 62    
Maximum Humidity 83    
Minimum Humidity 40    
Precipitation  
Precipitation T in 0.04 in 0.20 in (2001)
Month to date precipitation T 0.35  
Year to date precipitation 1.27 1.05  
Sea Level Pressure  
Sea Level Pressure 30.20 in    
Wind  
Wind Speed 5 mph (SE)    
Max Wind Speed 15 mph    
Max Gust Speed 17 mph    
Visibility 10 miles    
Events      
T = Trace of Precipitation, MM = Missing Value Source: NWS Daily Summary

Daily Weather History Graph

Daily Weather History Graph

Search for Another Location

Airport or City:

Astronomy

Feb. 13, 2018 Rise Set
Actual Time 6:30 AM PST 5:20 PM PST
Civil Twilight 6:04 AM PST 5:46 PM PST
Nautical Twilight 5:33 AM PST 6:16 PM PST
Astronomical Twilight 5:03 AM PST 6:46 PM PST
Moon 5:08 AM PST (2/13) 3:33 PM PST (2/13)
Length of Visible Light 11h 42m
Length of Day
10h 49m
Waning Crescent, 4% of the Moon is Illuminated
Feb 13
Waning Crescent
Feb 15
New
Feb 23
First Quarter
Mar 1
Full
Mar 9
Last Quarter

Hourly Weather History & Observations

Time (PST) Temp. Windchill Dew Point Humidity Pressure Visibility Wind Dir Wind Speed Gust Speed Precip Events Conditions
12:53 AM 48.0 °F - 39.9 °F 74% 30.05 in 10.0 mi South 5.8 mph - 0.00 in   Overcast
1:53 AM 46.9 °F - 41.0 °F 80% 30.08 in 10.0 mi ESE 11.5 mph - N/A   Overcast
2:53 AM 46.0 °F 41.0 °F 41.0 °F 83% 30.09 in 10.0 mi ESE 10.4 mph - N/A   Overcast
3:53 AM 46.0 °F 41.4 °F 37.9 °F 73% 30.12 in 10.0 mi East 9.2 mph - N/A   Overcast
4:53 AM 46.0 °F 43.1 °F 39.0 °F 76% 30.14 in 10.0 mi ESE 5.8 mph - N/A   Overcast
5:53 AM 46.0 °F - 39.0 °F 76% 30.16 in 10.0 mi Calm Calm - N/A   Scattered Clouds
6:53 AM 45.0 °F 43.5 °F 39.0 °F 80% 30.20 in 10.0 mi SW 3.5 mph - N/A   Partly Cloudy
7:53 AM 46.9 °F - 39.0 °F 74% 30.23 in 10.0 mi SW 4.6 mph - N/A   Clear
8:53 AM 48.9 °F - 39.0 °F 69% 30.25 in 10.0 mi SE 4.6 mph - N/A   Clear
9:53 AM 51.1 °F - 37.9 °F 61% 30.26 in 10.0 mi South 4.6 mph - N/A   Mostly Cloudy
10:53 AM 54.0 °F - 36.0 °F 51% 30.26 in 10.0 mi ENE 6.9 mph - N/A   Scattered Clouds
11:53 AM 55.9 °F - 35.1 °F 45% 30.25 in 10.0 mi Calm Calm - N/A   Mostly Cloudy
12:53 PM 55.0 °F - 34.0 °F 45% 30.23 in 10.0 mi SE 5.8 mph - N/A   Mostly Cloudy
1:53 PM 57.0 °F - 34.0 °F 42% 30.23 in 10.0 mi ESE 5.8 mph - N/A   Scattered Clouds
2:53 PM 59.0 °F - 35.1 °F 41% 30.21 in 10.0 mi Variable 6.9 mph - N/A   Partly Cloudy
3:53 PM 57.9 °F - 35.1 °F 42% 30.22 in 10.0 mi East 6.9 mph - N/A   Clear
4:53 PM 57.0 °F - 33.1 °F 40% 30.22 in 10.0 mi ESE 5.8 mph - N/A   Mostly Cloudy
5:53 PM 55.9 °F - 33.1 °F 42% 30.23 in 10.0 mi South 4.6 mph - N/A   Scattered Clouds
6:53 PM 55.9 °F - 34.0 °F 44% 30.25 in 10.0 mi Calm Calm - N/A   Overcast
7:53 PM 55.9 °F - 34.0 °F 44% 30.24 in 10.0 mi NE 3.5 mph - N/A   Overcast
8:53 PM 55.9 °F - 34.0 °F 44% 30.25 in 10.0 mi Calm Calm - N/A   Overcast
9:53 PM 55.0 °F - 36.0 °F 49% 30.24 in 10.0 mi West 3.5 mph - N/A   Overcast
10:53 PM 55.0 °F - 36.0 °F 49% 30.23 in 10.0 mi Calm Calm - N/A   Overcast
11:53 PM 53.1 °F - 37.0 °F 55% 30.22 in 10.0 mi Calm Calm - N/A   Overcast